Location: Sommers-Bausch Observatory
(40.0037°N, 105.2635°W)
Time: 14:09:12
(UTC-06:00)

Daily predictions for brighter satellites

Satellite Brightness Start Highest point End
(mag) Time Altitude Azimuth Time Altitude Azimuth Time Altitude Azimuth
ERS-1 Rocket 3.4 20:44:24 10° SE 20:49:14 47° ENE 20:54:03 10° N
Meteor 2-10 Rocket 3.9 20:45:12 10° N 20:50:59 61° ENE 20:56:35 10° SSE
Cosmos 2181 Rocket 4.4 20:47:39 10° N 20:54:04 73° W 21:00:25 10° S
USA 186 2.2 20:51:20 10° S 20:54:20 61° W 20:57:33 10° NNW
H-2A R/B 4.1 20:51:13 10° SW 20:54:52 30° SSE 21:08:02 10° ESE
Cosmos 1782 3.7 20:51:41 10° NNE 20:55:19 31° ENE 20:58:56 10° SE
Cosmos 1939 Rocket 3.4 20:56:20 10° SE 20:59:56 38° ENE 21:03:35 10° N
Cosmos 1606 4.2 20:57:29 10° NNE 21:00:33 21° ENE 21:03:33 10° SE
H-2A R/B 2.7 20:58:52 10° SE 21:02:52 37° ENE 21:06:48 10° N
Atlas Centaur 2 2.7 21:01:37 10° SW 21:04:07 18° S 21:06:28 11° SE
Cosmos 1892 2.7 21:02:56 10° S 21:06:45 88° ESE 21:10:37 10° N
Cosmos 909 Rocket 4.3 21:03:28 10° SSW 21:09:55 90° ESE 21:17:42 10° NNE
USA 234 4.5 21:06:34 10° E 21:10:37 17° ESE 21:14:39 10° SSE
H-2A R/B 4.2 21:08:42 10° SSW 21:12:08 36° W 21:15:36 10° NNW
Cosmos 2074 Rocket 4.0 21:06:55 10° S 21:13:13 87° E 21:19:31 10° N
BREEZE-M DEB (TANK) 3.7 21:20:16 10° W 21:22:07 22° NNW 21:23:55 10° NE
Cosmos 1610 Rocket 4.5 21:16:08 10° S 21:22:14 70° E 21:28:25 10° NNE
Okean 2 Rocket 4.4 21:22:51 15° SE 21:25:05 22° E 21:28:28 10° NE
Cosmos 676 Rocket 4.5 21:21:13 10° N 21:26:12 45° ENE 21:30:01 16° SE
Cosmos 2056 Rocket 3.7 21:23:30 10° SSW 21:28:39 73° WNW 21:33:47 10° NNE
Nadezhda 3 Rocket 4.3 21:23:08 10° N 21:29:22 53° E 21:34:48 14° SSE
Meteor 2-6 Rocket 4.3 21:24:43 10° N 21:30:43 82° E 21:36:33 10° S
Cosmos 1174 4.3 21:28:14 10° NNW 21:31:12 31° NE 21:32:40 20° ESE
Cosmos 1674 Rocket 3.6 21:27:07 10° N 21:31:35 89° ENE 21:36:01 10° S
Sich 1 Rocket 3.6 21:27:11 10° S 21:31:44 72° E 21:36:19 10° NNE
CZ-4 SHROUD 4.0 21:32:13 22° ESE 21:33:35 33° ENE 21:36:26 10° N
CENTAUR R/B 3.6 21:29:27 10° NW 21:37:12 59° WSW 21:45:16 10° SSE
SL-27 R/B 2.8 21:36:36 10° NNW 21:40:14 66° WSW 21:42:56 16° S
COS B Rocket 3.3 21:36:50 10° N 21:40:59 64° E 21:43:40 18° SSE
Cosmos 1782 Rocket 4.0 21:41:24 19° SSE 21:44:17 43° E 21:48:32 10° NNE
ARGOS 3.8 21:42:39 20° SE 21:45:49 39° ENE 21:50:46 10° N
PSLV R/B 3.2 21:44:57 32° SE 21:46:02 56° ENE 21:48:57 10° N
COSMOS 2406 3.9 21:40:59 10° NNW 21:46:35 53° WSW 21:51:52 11° S
ATLAS 5 CENTAUR R/B 3.0 21:41:12 10° NW 21:47:09 55° WSW 21:52:27 15° SSE
COSMOS 2487 3.3 21:45:24 10° N 21:48:46 35° ENE 21:49:57 27° ESE
Cosmos 2341 Rocket 4.0 21:42:35 10° S 21:48:49 63° E 21:55:01 10° NNE
Coronas F rocket 4.4 21:47:40 10° WSW 21:49:19 15° WNW 21:51:00 10° NW
Okean 3 3.8 21:45:18 10° N 21:49:29 50° E 21:51:34 26° SE
ISS -3.2 21:54:29 10° SSW 21:57:37 47° SE 21:59:03 27° ENE
APEX 4.3 21:57:54 28° ESE 21:58:04 28° ESE 22:02:02 10° NE
Cosmos 1238 Rocket 2.3 21:54:53 10° N 21:58:04 70° E 21:59:26 34° SSE
Cosmos 1825 2.1 21:56:12 19° S 21:58:50 82° E 22:02:41 10° N
Cosmos 2278 Rocket 2.1 21:55:00 10° SSW 22:00:36 68° ESE 22:06:16 10° NNE
Cosmos 1975 Rocket 3.2 21:56:24 10° N 22:00:39 56° E 22:02:26 32° SE
SPOT 5 3.2 21:56:49 17° S 22:00:55 76° WSW 22:06:19 10° NNW
Timation 2 Rocket 4.4 21:55:58 10° NNW 22:01:42 44° ENE 22:04:45 25° ESE
Intercosmos 25 3.5 22:02:10 36° SE 22:03:00 44° E 22:06:06 10° NNE
Cosmos 1862 3.5 21:59:44 12° SSW 22:03:24 75° W 22:07:29 10° N
Cosmos 1833 Rocket 4.2 21:59:19 10° N 22:03:39 22° NE 22:06:17 16° E
Cosmos 1844 3.9 21:58:34 10° SSW 22:04:19 75° WNW 22:10:08 10° NNE
Envisat 3.8 22:00:13 11° S 22:05:00 48° W 22:09:55 10° NNW
YAOGAN 6 2.4 22:03:52 36° SSE 22:05:12 90° NNE 22:08:44 10° NNW
ERBS 4.3 22:03:09 10° WNW 22:05:52 22° SW 22:07:10 17° SSW
Terra 3.2 22:04:36 21° E 22:06:02 24° ENE 22:09:48 10° NNE
Cosmos 1408 2.6 22:04:16 20° SSW 22:06:39 78° W 22:10:20 10° N
Cosmos 1844 Rocket 3.6 22:03:23 10° SW 22:08:53 51° WNW 22:14:22 10° NNE
Cosmos 1908 Rocket 4.2 22:05:06 10° SSW 22:09:23 55° W 22:13:45 10° N
SL-8 Rocket 4.2 22:06:03 23° SSE 22:09:49 54° E 22:15:53 10° NNE
Cosmos 962 Rocket 4.4 22:03:47 10° S 22:09:55 89° W 22:16:11 10° N
Cosmos 1378 Rocket 3.9 22:10:57 10° NNW 22:15:13 61° W 22:17:38 24° SSW
Cosmos 1420 Rocket 3.9 22:11:37 19° S 22:15:18 65° ESE 22:20:30 10° NNE
H-2A R/B 2.8 22:15:17 29° ESE 22:17:13 39° ENE 22:22:09 10° N
Cosmos 1242 Rocket 2.6 22:13:59 10° N 22:17:37 63° ENE 22:18:10 55° SE
GPS 2-05 Rocket1 4.3 22:14:29 10° SW 22:16:36 26° SSW 22:16:36 26° SSW
USA 245 2.7 22:17:31 61° S 22:18:00 86° WSW 22:21:45 10° NNW
Cosmos 2154 Rocket 4.5 22:12:18 10° SSW 22:18:26 60° W 22:24:34 10° N
MetOp-A 4.5 22:15:53 21° S 22:19:29 61° WSW 22:24:48 10° NNW
Cosmos 2082 Rocket 3.1 22:15:43 10° N 22:20:59 37° ENE 22:23:06 28° E
CZ-4C R/B 3.7 22:25:01 43° E 22:25:23 44° ENE 22:29:14 10° N
Cosmos 2084 3.7 22:22:35 10° SW 22:26:23 58° NW 22:30:11 10° NNE
Cosmos 2151 Rocket 3.8 22:29:56 47° ESE 22:30:27 50° E 22:34:50 10° NNE
SL-08 RB Rocket 3.6 22:29:16 45° SSE 22:30:41 86° ENE 22:35:20 10° NNW
Cosmos 614 Rocket 4.1 22:26:02 10° N 22:31:04 57° ENE 22:32:23 43° ESE
SPOT 1/Viking Rocket 3.7 22:29:54 31° S 22:32:23 69° WSW 22:37:36 10° NNW
Cosmos 2297 3.7 22:30:37 30° S 22:33:21 64° ESE 22:39:02 10° NNE
Cosmos 1140 Rocket 3.4 22:31:30 10° NNW 22:36:39 82° WSW 22:38:19 44° S
H-2A R/B 4.4 22:36:01 10° SW 22:38:59 18° W 22:41:56 10° NW
Cosmos 864 Rocket 4.4 22:39:10 39° SSE 22:41:25 65° E 22:47:30 10° NNE
NOAA 11 4.4 22:41:27 34° S 22:43:50 65° WSW 22:49:20 10° NNW
Cosmos 2366 rocket 3.9 22:46:27 37° S 22:49:05 80° E 22:55:27 10° N
CZ-4B R/B 4.2 22:44:39 10° N 22:49:27 50° WNW 22:52:57 17° SW
USA 234 3.1 22:47:43 10° NE 22:54:15 76° SE 23:00:47 10° SW
CZ-4 R/B 4.3 22:50:39 10° N 22:55:15 57° WNW 22:57:23 30° SW
Okean 1 Rocket 4.2 22:59:58 32° ENE 22:59:58 32° ENE 23:03:06 10° NNE
Cosmos 1300 Rocket 4.4 23:00:45 38° ENE 23:00:45 38° ENE 23:04:07 10° NNE
Cosmos 1850 Rocket 4.3 23:00:29 10° NNW 23:05:43 60° WSW 23:06:48 49° SSW
Okean 1 4.1 23:03:10 10° N 23:06:22 43° NE 23:06:22 43° NE
IGS 5A 3.5 23:09:04 78° NNW 23:09:04 78° NNW 23:13:00 10° NNW
DMSP B5D2-2 4.0 23:03:56 10° NNE 23:09:11 88° WNW 23:10:10 60° SSW
Cosmos 2369 Rocket 4.2 23:12:49 13° ENE 23:12:49 13° ENE 23:14:03 10° ENE
Meteor 1-20 Rocket 4.1 23:15:10 65° S 23:16:02 86° E 23:21:37 10° N
BREEZE-M TANK 3.5 23:13:07 10° WNW 23:22:01 51° N 23:23:05 39° NE
Meteor 1-25 Rocket 4.4 23:22:08 48° SW 23:23:44 71° W 23:29:34 10° N
Cosmos 1727 Rocket 4.3 23:25:14 10° NNW 23:31:16 57° W 23:32:48 45° SW
ISS -0.4 23:31:30 10° W 23:37:54 - NE 23:32:10 14° WNW
Cosmos 1331 Rocket 3.9 23:38:16 82° NW 23:38:16 82° NW 23:43:20 10° NNE
USA 229 DEB 3.7 23:35:24 10° NW 23:42:30 74° WSW 23:43:40 62° S
USA 229 3.7 23:35:29 10° NW 23:42:36 74° WSW 23:43:46 62° S
Cosmos 1110 Rocket 4.1 23:42:33 64° W 23:42:56 66° WNW 23:48:09 10° NNE
Terra 2.9 23:43:30 35° W 23:43:33 35° W 23:47:55 10° NNW
Iridium 4 Rocket 3.9 23:37:45 10° N 23:43:33 61° E 23:43:33 61° E
Cosmos 1833 Rocket 3.0 23:42:27 10° NNW 23:47:56 55° WSW 23:47:58 55° WSW
Cosmos 1812 4.5 23:48:27 10° NNW 23:50:55 29° WNW 23:50:55 29° WNW
Cosmos 1943 Rocket 4.4 23:56:26 12° ENE 23:56:26 12° ENE 23:57:12 10° ENE
